H1 CPF 2 NER 2024 5 20 9 141 01 glonass134 H2 1407501 9134 40315 2024 5 20 0 0 0 2024 5 23 23 45 0 900 1 1 0 0 0 1 H9 10 0 60450 0.00000 0 23954837.451 -5858780.418 6708582.863 10 0 60450 900.00000 0 22995559.072 -5544526.024 9676435.467 10 0 60450 1800.00000 0 21746813.058 -5001778.948 12457389.343 10 0 60450 2700.00000 0 20259136.904 -4203968.333 14997718.264 10 0 60450 3600.00000 0 18589400.543 -3135411.179 17248308.846 10 0 60450 4500.00000 0 16798470.046 -1792234.229 19165596.629 10 0 60450 5400.00000 0 14948724.087 -182804.846 20712399.864 10 0 60450 6300.00000 0 13101524.833 1672348.834 21858635.962 10 0 60450 7200.00000 0 11314746.828 3741127.467 22581907.330 10 0 60450 8100.00000 0 9640465.271 5980938.201 22867945.396 10 0 60450 9000.00000 0 8122898.884 8340218.906 22710903.759 10 0 60450 9900.00000 0 6796692.591 10760348.924 22113493.689 10 0 60450 10800.00000 0 5685611.745 13177870.050 21086957.792 10 0 60450 11700.00000 0 4801703.039 15526928.101 19650880.248 10 0 60450 12600.00000 0 4144958.420 17741835.465 17832835.024 10 0 60450 13500.00000 0 3703497.465 19759649.024 15667876.433 10 0 60450 14400.00000 0 3454262.110 21522656.165 13197879.644 10 0 60450 15300.00000 0 3364195.836 22980664.298 10470742.038 10 0 60450 16200.00000 0 3391858.539 24092996.642 7539459.550 10 0 60450 17100.00000 0 3489409.169 24830108.647 4461095.229 10 0 60450 18000.00000 0 3604871.842 25174754.911 1295660.229 10 0 60450 18900.00000 0 3684588.201 25122655.420 -1895070.152 10 0 60450 19800.00000 0 3675750.091 24682631.243 -5048780.798 10 0 60450 20700.00000 0 3528902.597 23876202.836 -8103855.469 10 0 60450 21600.00000 0 3200308.370 22736667.492 -11000603.362 10 0 60450 22500.00000 0 2654070.045 21307695.261 -13682447.129 10 0 60450 23400.00000 0 1863918.057 19641503.753 -16097046.814 10 0 60450 24300.00000 0 814585.879 17796690.457 -18197335.899 10 0 60450 25200.00000 0 -497287.116 15835815.913 -19942447.825 10 0 60450 26100.00000 0 -2062764.258 13822841.505 -21298514.182 10 0 60450 27000.00000 0 -3860748.367 11820531.304 -22239318.964 10 0 60450 27900.00000 0 -5858640.615 9887928.219 -22746796.742 10 0 60450 28800.00000 0 -8013492.983 8078010.771 -22811366.219 10 0 60450 29700.00000 0 -10273604.903 6435628.190 -22432094.241 10 0 60450 30600.00000 0 -12580496.209 4995798.950 -21616688.967 10 0 60450 31500.00000 0 -14871172.945 3782441.824 -20381324.241 10 0 60450 32400.00000 0 -17080590.889 2807589.739 -18750300.517 10 0 60450 33300.00000 0 -19144213.914 2071116.114 -16755550.622 10 0 60450 34200.00000 0 -21000560.896 1560981.761 -14436001.442 10 0 60450 35100.00000 0 -22593636.013 1253988.707 -11836805.038 10 0 60450 36000.00000 0 -23875142.543 1117006.406 -9008454.833 10 0 60450 36900.00000 0 -24806389.683 1108616.440 -6005804.429 10 0 60450 37800.00000 0 -25359814.934 1181104.922 -2887008.050 10 0 60450 38700.00000 0 -25520060.614 1282717.825 287597.234 10 0 60450 39600.00000 0 -25284561.550 1360084.076 3456646.526 10 0 60450 40500.00000 0 -24663621.048 1360704.777 6558918.001 10 0 60450 41400.00000 0 -23679973.148 1235404.568 9534498.342 10 0 60450 42300.00000 0 -22367849.976 940642.973 12325921.553 10 0 60450 43200.00000 0 -20771593.050 440589.552 14879260.795 10 0 60450 44100.00000 0 -18943865.690 -291123.630 17145153.745 10 0 60450 45000.00000 0 -16943539.745 -1270045.517 19079743.247 10 0 60450 45900.00000 0 -14833342.907 -2500002.802 20645516.431 10 0 60450 46800.00000 0 -12677362.485 -3972688.895 21812027.214 10 0 60450 47700.00000 0 -10538507.479 -5667764.169 22556488.796 10 0 60450 48600.00000 0 -8476032.573 -7553465.899 22864224.883 10 0 60450 49500.00000 0 -6543225.474 -9587705.540 22728970.432 10 0 60450 50400.00000 0 -4785352.806 -11719610.932 22153015.041 10 0 60450 51300.00000 0 -3237949.662 -13891452.514 21147184.668 10 0 60450 52200.00000 0 -1925524.253 -16040876.291 19730659.946 10 0 60450 53100.00000 0 -860732.514 -18103352.884 17930632.313 10 0 60450 54000.00000 0 -44058.311 -20014742.099 15781802.224 10 0 60450 54900.00000 0 535986.033 -21713866.596 13325726.842 10 0 60450 55800.00000 0 902145.964 -23144986.704 10610027.965 10 0 60450 56700.00000 0 1087226.720 -24260071.556 7687474.152 10 0 60450 57600.00000 0 1132461.157 -25020769.393 4614954.145 10 0 60450 58500.00000 0 1085512.490 -25399991.930 1452361.662 10 0 60450 59400.00000 0 998197.392 -25383043.678 -1738585.960 10 0 60450 60300.00000 0 924027.572 -24968246.447 -4895570.739 10 0 60450 61200.00000 0 915676.383 -24167030.899 -7956912.700 10 0 60450 62100.00000 0 1022480.631 -23003490.260 -10862797.709 10 0 60450 63000.00000 0 1288086.499 -21513414.719 -13556468.038 10 0 60450 63900.00000 0 1748342.191 -19742847.796 -15985350.072 10 0 60450 64800.00000 0 2429529.063 -17746226.706 -18102095.220 10 0 60450 65700.00000 0 3347008.011 -15584186.698 -19865512.305 10 0 60450 66600.00000 0 4504339.555 -13321123.590 -21241372.446 10 0 60450 67500.00000 0 5892915.228 -11022618.645 -22203070.705 10 0 60450 68400.00000 0 7492115.670 -8752835.149 -22732132.147 10 0 60450 69300.00000 0 9269988.031 -6571996.533 -22818553.626 10 0 60450 70200.00000 0 11184413.146 -4534051.479 -22460976.180 10 0 60450 71100.00000 0 13184712.357 -2684622.710 -21666686.557 10 0 60450 72000.00000 0 15213625.465 -1059323.390 -20451449.762 10 0 60450 72900.00000 0 17209576.168 317491.079 -18839177.802 10 0 60450 73800.00000 0 19109129.778 1433486.792 -16861442.793 10 0 60450 74700.00000 0 20849540.480 2288602.119 -14556845.369 10 0 60450 75600.00000 0 22371282.265 2894778.534 -11970251.805 10 0 60450 76500.00000 0 23620458.871 3275186.070 -9151915.407 10 0 60450 77400.00000 0 24550993.489 3462978.739 -6156499.648 10 0 60450 78300.00000 0 25126508.544 3499634.436 -3042021.991 10 0 60450 79200.00000 0 25321818.876 3432950.605 131261.498 10 0 60450 80100.00000 0 25123977.769 3314780.715 3302009.789 10 0 60450 81000.00000 0 24532833.705 3198606.866 6408967.470 10 0 60450 81900.00000 0 23561075.748 3137050.154 9392130.873 10 0 60450 82800.00000 0 22233766.292 3179422.640 12193888.628 10 0 60450 83700.00000 0 20587380.655 3369422.852 14760116.208 10 0 60450 84600.00000 0 18668392.885 3743070.671 17041204.959 10 0 60450 85500.00000 0 16531465.418 4326967.708 18993007.258 10 0 60451 0.00000 0 14237316.359 5136955.929 20577680.856 10 0 60451 900.00000 0 11850349.678 6177231.794 21764417.927 10 0 60451 1800.00000 0 9436147.636 7439953.181 22530043.377 10 0 60451 2700.00000 0 7058923.279 8905358.998 22859473.821 10 0 60451 3600.00000 0 4779039.911 10542398.167 22746025.744 10 0 60451 4500.00000 0 2650697.901 12309845.178 22191566.767 10 0 60451 5400.00000 0 719884.273 14157858.860 21206505.389 10 0 60451 6300.00000 0 -977329.869 16029922.442 19809617.377 10 0 60451 7200.00000 0 -2416072.802 17865086.588 18027709.865 10 0 60451 8100.00000 0 -3583482.074 19600423.672 15895127.246 10 0 60451 9000.00000 0 -4479005.798 21173591.807 13453106.112 10 0 60451 9900.00000 0 -5114181.433 22525401.348 10748989.831 10 0 60451 10800.00000 0 -5511900.187 23602275.449 7835316.525 10 0 60451 11700.00000 0 -5705187.318 24358499.698 4768797.432 10 0 60451 12600.00000 0 -5735549.602 24758163.924 1609205.551 10 0 60451 13500.00000 0 -5650960.414 24776711.863 -1581803.021 10 0 60451 14400.00000 0 -5503568.988 24402030.763 -4741910.638 10 0 60451 15300.00000 0 -5347232.956 23635032.733 -7809376.644 10 0 60451 16200.00000 0 -5234981.267 22489701.596 -10724266.391 10 0 60451 17100.00000 0 -5216517.926 20992602.347 -13429644.299 10 0 60451 18000.00000 0 -5335875.218 19181873.750 -15872705.280 10 0 60451 18900.00000 0 -5629318.462 17105747.163 -18005820.499 10 0 60451 19800.00000 0 -6123593.119 14820655.133 -19787475.623 10 0 60451 20700.00000 0 -6834589.848 12389010.897 -21183082.429 10 0 60451 21600.00000 0 -7766484.609 9876753.648 -22165647.824 10 0 60451 22500.00000 0 -8911390.083 7350763.944 -22716287.829 10 0 60451 23400.00000 0 -10249532.443 4876258.439 -22824577.553 10 0 60451 24300.00000 0 -11749944.937 2514273.177 -22488731.971 10 0 60451 25200.00000 0 -13371647.758 319340.016 -21715615.774 10 0 60451 26100.00000 0 -15065263.268 -1662548.139 -20520584.078 10 0 60451 27000.00000 0 -16774997.598 -3395600.591 -18927158.997 10 0 60451 27900.00000 0 -18440904.689 -4855454.036 -16966550.118 10 0 60451 28800.00000 0 -20001337.491 -6029911.777 -14677029.695 10 0 60451 29700.00000 0 -21395483.790 -6919169.658 -12103175.846 10 0 60451 30600.00000 0 -22565881.115 -7535522.735 -9294999.220 10 0 60451 31500.00000 0 -23460806.540 -7902568.175 -6306970.524 10 0 60451 32400.00000 0 -24036442.791 -8053940.485 -3196967.773 10 0 60451 33300.00000 0 -24258731.644 -8031634.202 -25163.324 10 0 60451 34200.00000 0 -24104838.740 -7883985.757 3147128.365 10 0 60451 35100.00000 0 -23564170.030 -7663399.898 6258620.969 10 0 60451 36000.00000 0 -22638898.546 -7423916.102 9249223.107 10 0 60451 36900.00000 0 -21343980.130 -7218716.632 12061180.590 10 0 60451 37800.00000 0 -19706657.565 -7097679.998 14640173.632 10 0 60451 38700.00000 0 -17765473.181 -7105081.482 16936349.475 10 0 60451 39600.00000 0 -15568829.833 -7277536.357 18905272.011 10 0 60451 40500.00000 0 -13173158.356 -7642271.461 20508771.509 10 0 60451 41400.00000 0 -10640765.399 -8215797.604 21715679.120 10 0 60451 42300.00000 0 -8037448.587 -9003039.064 22502432.666 10 0 60451 43200.00000 0 -5429975.459 -9996958.029 22853542.169 10 0 60451 44100.00000 0 -2883528.478 -11178691.806 22761905.761 10 0 60451 45000.00000 0 -459220.228 -12518199.720 22228968.845 10 0 60451 45900.00000 0 1788219.402 -13975395.669 21264721.910 10 0 60451 46800.00000 0 3812488.696 -15501722.064 19887535.008 10 0 60451 47700.00000 0 5577407.105 -17042102.124 18123829.838 10 0 60451 48600.00000 0 7058184.683 -18537191.124 16007593.327 10 0 60451 49500.00000 0 8242213.927 -19925833.816 13579739.825 10 0 60451 50400.00000 0 9129349.603 -21147625.526 10887332.310 10 0 60451 51300.00000 0 9731663.575 -22145468.983 7982676.253 10 0 60451 52200.00000 0 10072683.974 -22868018.079 4922302.945 10 0 60451 53100.00000 0 10186150.231 -23271903.554 1765862.042 10 0 60451 54000.00000 0 10114336.728 -23323644.253 -1425054.350 10 0 60451 54900.00000 0 9906016.832 -23001160.538 -4588131.742 10 0 60451 55800.00000 0 9614155.118 -22294823.340 -7661571.620 10 0 60451 56700.00000 0 9293427.818 -21207992.329 -10585321.615 10 0 60451 57600.00000 0 8997679.209 -19757018.913 -13302271.007 10 0 60451 58500.00000 0 8777424.543 -17970713.132 -15759385.822 10 0 60451 59400.00000 0 8677508.009 -15889296.914 -17908759.388 10 0 60451 60300.00000 0 8735017.105 -13562888.430 -19708556.390 10 0 60451 61200.00000 0 8977543.346 -11049582.492 -21123831.120 10 0 60451 62100.00000 0 9421863.713 -8413209.019 -22127203.848 10 0 60451 63000.00000 0 10073098.638 -5720864.946 -22699382.656 10 0 60451 63900.00000 0 10924381.471 -3040324.007 -22829521.626 10 0 60451 64800.00000 0 11957052.183 -437433.246 -22515409.972 10 0 60451 65700.00000 0 13141365.623 2026395.212 -21763490.248 10 0 60451 66600.00000 0 14437682.875 4296493.377 -20588707.233 10 0 60451 67500.00000 0 15798094.016 6326953.058 -19014192.354 10 0 60451 68400.00000 0 17168402.824 8082266.399 -17070791.532 10 0 60451 69300.00000 0 18490389.172 9538525.850 -14796447.143 10 0 60451 70200.00000 0 19704253.799 10684136.895 -12235447.302 10 0 60451 71100.00000 0 20751143.034 11520017.263 -9437557.795 10 0 60451 72000.00000 0 21575648.247 12059277.629 -6457054.018 10 0 60451 72900.00000 0 22128176.295 12326400.201 -3351671.701 10 0 60451 73800.00000 0 22367092.976 12355952.019 -181496.444 10 0 60451 74700.00000 0 22260551.159 12190888.696 2992187.050 10 0 60451 75600.00000 0 21787928.436 11880520.785 6108064.750 10 0 60451 76500.00000 0 20940815.269 11478228.416 9105960.704 10 0 60451 77400.00000 0 19723513.081 11039019.826 11927980.896 10 0 60451 78300.00000 0 18153021.581 10617035.427 14519613.075 10 0 60451 79200.00000 0 16258515.425 10263101.079 16830762.926 10 0 60451 80100.00000 0 14080330.826 10022432.064 18816708.142 10 0 60451 81000.00000 0 11668502.554 9932583.064 20438953.391 10 0 60451 81900.00000 0 9080909.820 10021729.531 21665970.790 10 0 60451 82800.00000 0 6381105.451 10307352.448 22473812.291 10 0 60451 83700.00000 0 3635915.683 10795382.291 22846582.328 10 0 60451 84600.00000 0 912907.429 11479839.445 22776761.270 10 0 60451 85500.00000 0 -1722174.227 12342988.208 22265372.433 10 0 60452 0.00000 0 -4207893.612 13356000.400 21321988.015 10 0 60452 900.00000 0 -6489436.335 14480104.190 19964571.290 10 0 60452 1800.00000 0 -8520646.466 15668171.389 18219157.172 10 0 60452 2700.00000 0 -10265708.416 16866680.927 16119373.227 10 0 60452 3600.00000 0 -11700399.171 18017976.659 13705809.248 10 0 60452 4500.00000 0 -12812858.692 19062726.131 11025245.184 10 0 60452 5400.00000 0 -13603844.580 19942476.912 8129750.969 10 0 60452 6300.00000 0 -14086459.101 20602201.907 5075674.882 10 0 60452 7200.00000 0 -14285359.172 20992724.590 1922540.086 10 0 60452 8100.00000 0 -14235482.313 21072919.379 -1268128.493 10 0 60452 9000.00000 0 -13980342.822 20811591.405 -4434022.686 10 0 60452 9900.00000 0 -13569971.403 20188953.383 -7513289.214 10 0 60452 10800.00000 0 -13058587.332 19197634.556 -10445760.934 10 0 60452 11700.00000 0 -12502104.131 17843176.957 -13174154.727 10 0 60452 12600.00000 0 -11955577.063 16143996.639 -15645210.199 10 0 60452 13500.00000 0 -11470703.221 14130810.859 -17810745.000 10 0 60452 14400.00000 0 -11093482.352 11845555.443 -19628604.634 10 0 60452 15300.00000 0 -10862139.237 9339838.629 -21063487.356 10 0 60452 16200.00000 0 -10805396.496 6672997.429 -22087627.873 10 0 60452 17100.00000 0 -10941171.080 3909839.293 -22681327.038 10 0 60452 18000.00000 0 -11275748.945 1118164.807 -22833318.232 10 0 60452 18900.00000 0 -11803471.516 -1633824.251 -22540964.845 10 0 60452 19800.00000 0 -12506945.477 -4280123.075 -21810286.829 10 0 60452 20700.00000 0 -13357765.073 -6759420.316 -20655817.753 10 0 60452 21600.00000 0 -14317714.546 -9017390.097 -19100297.079 10 0 60452 22500.00000 0 -15340398.288 -11008686.046 -17174205.408 10 0 60452 23400.00000 0 -16373228.746 -12698556.840 -14915153.271 10 0 60452 24300.00000 0 -17359687.548 -14064018.985 -12367136.546 10 0 60452 25200.00000 0 -18241764.467 -15094541.257 -9579673.741 10 0 60452 26100.00000 0 -18962471.903 -15792215.516 -6606842.398 10 0 60452 27000.00000 0 -19468329.957 -16171409.912 -3506233.354 10 0 60452 27900.00000 0 -19711718.815 -16257921.674 -337842.806 10 0 60452 28800.00000 0 -19653000.966 -16087667.033 2837076.955 10 0 60452 29700.00000 0 -19262325.589 -15704964.602 5957186.853 10 0 60452 30600.00000 0 -18521040.607 -15160484.803 8962229.002 10 0 60452 31500.00000 0 -17422654.107 -14508951.321 11794172.158 10 0 60452 32400.00000 0 -15973305.223 -13806690.313 14398314.095 10 0 60452 33300.00000 0 -14191724.444 -13109129.088 16724321.290 10 0 60452 34200.00000 0 -12108684.048 -12468347.834 18727187.358 10 0 60452 35100.00000 0 -9765959.813 -11930785.701 20368093.215 10 0 60452 36000.00000 0 -7214844.957 -11535196.308 21615153.467 10 0 60452 36900.00000 0 -4514275.325 -11310937.719 22444035.358 10 0 60452 37800.00000 0 -1728640.701 -11276668.504 22838438.537 10 0 60452 38700.00000 0 1074629.952 -11439505.163 22790426.059 10 0 60452 39600.00000 0 3827611.859 -11794677.620 22300599.249 10 0 60452 40500.00000 0 6464453.185 -12325699.169 21378111.599 10 0 60452 41400.00000 0 8923864.215 -13005046.164 20040519.428 10 0 60452 42300.00000 0 11151424.362 -13795321.477 18313469.920 10 0 60452 43200.00000 0 13101611.144 -14650855.339 16230230.159 10 0 60452 44100.00000 0 14739465.993 -15519678.281 13831063.933 10 0 60452 45000.00000 0 16041826.151 -16345784.516 11162466.358 10 0 60452 45900.00000 0 16998069.664 -17071590.906 8276269.670 10 0 60452 46800.00000 0 17610340.760 -17640487.337 5228636.639 10 0 60452 47700.00000 0 17893244.860 -17999369.476 2078961.135 10 0 60452 48600.00000 0 17873025.327 -18101044.721 -1111302.118 10 0 60452 49500.00000 0 17586256.588 -17906406.918 -4279854.425 10 0 60452 50400.00000 0 17078109.485 -17386284.912 -7364790.915 10 0 60452 51300.00000 0 16400263.645 -16522883.841 -10305832.796 10 0 60452 52200.00000 0 15608557.196 -15310755.698 -13045527.532 10 0 60452 53100.00000 0 14760475.757 -13757256.187 -15530391.103 10 0 60452 54000.00000 0 13912589.534 -11882467.364 -17711968.027 10 0 60452 54900.00000 0 13118049.338 -9718588.856 -19547786.894 10 0 60452 55800.00000 0 12424249.387 -7308823.523 -21002191.848 10 0 60452 56700.00000 0 11870756.899 -4705805.155 -22047033.598 10 0 60452 57600.00000 0 11487596.428 -1969635.235 -22662206.931 10 0 60452 58500.00000 0 11293960.914 834387.856 -22836025.270 10 0 60452 59400.00000 0 11297402.698 3638251.303 -22565426.515 10 0 60452 60300.00000 0 11493536.773 6373817.845 -21856007.947 10 0 60452 61200.00000 0 11866266.591 8975415.280 -20721891.473 10 0 60452 62100.00000 0 12388520.531 11382318.346 -19185423.777 10 0 60452 63000.00000 0 13023465.723 13541021.067 -17276718.980 10 0 60452 63900.00000 0 13726146.133 15407206.981 -15033054.268 10 0 60452 64800.00000 0 14445474.409 16947337.853 -12498131.440 10 0 60452 65700.00000 0 15126492.709 18139797.642 -9721219.555 10 0 60452 66600.00000 0 15712807.009 18975547.145 -6756195.830 10 0 60452 67500.00000 0 16149092.694 19458265.096 -3660503.461 10 0 60452 68400.00000 0 16383566.780 19603972.603 -494046.292 10 0 60452 69300.00000 0 16370323.864 19440158.939 2681958.868 10 0 60452 70200.00000 0 16071438.877 19004446.964 5806151.001 10 0 60452 71100.00000 0 15458749.541 18342855.003 8818193.338 10 0 60452 72000.00000 0 14515244.676 17507728.248 11659920.321 10 0 60452 72900.00000 0 13236000.678 16555425.894 14276442.496 10 0 60452 73800.00000 0 11628626.877 15543859.907 16617189.660 10 0 60452 74700.00000 0 9713200.375 14529987.172 18636873.656 10 0 60452 75600.00000 0 7521691.578 13567358.527 20296353.700 10 0 60452 76500.00000 0 5096902.155 12703825.840 21563388.685 10 0 60452 77400.00000 0 2490956.930 11979501.994 22413262.650 10 0 60452 78300.00000 0 -236590.737 11425058.511 22829271.632 10 0 60452 79200.00000 0 -3020964.599 11060432.044 22803062.154 10 0 60452 80100.00000 0 -5794593.726 10893994.560 22334813.912 10 0 60452 81000.00000 0 -8489665.191 10922223.296 21433261.665 10 0 60452 81900.00000 0 -11040697.358 11129886.132 20115553.956 10 0 60452 82800.00000 0 -13387028.170 11490736.803 18406949.126 10 0 60452 83700.00000 0 -15475115.436 11968692.956 16340352.094 10 0 60452 84600.00000 0 -17260552.995 12519449.553 13955698.500 10 0 60452 85500.00000 0 -18709717.578 13092461.190 11299196.113 10 0 60453 0.00000 0 -19800975.969 13633210.533 8422436.931 10 0 60453 900.00000 0 -20525400.708 14085667.312 5381394.700 10 0 60453 1800.00000 0 -20886961.276 14394832.280 2235331.134 10 0 60453 2700.00000 0 -20902183.436 14509257.664 -954372.398 10 0 60453 3600.00000 0 -20599288.877 14383434.231 -4125429.830 10 0 60453 4500.00000 0 -20016852.197 13979941.258 -7215887.814 10 0 60453 5400.00000 0 -19202032.728 13271265.342 -10165358.921 10 0 60453 6300.00000 0 -18208457.499 12241208.215 -12916224.067 10 0 60453 7200.00000 0 -17093846.989 10885821.652 -15414778.260 10 0 60453 8100.00000 0 -15917486.455 9213828.260 -17612295.248 10 0 60453 9000.00000 0 -14737652.090 7246509.356 -19465988.719 10 0 60453 9900.00000 0 -13609102.835 5017064.453 -20939850.333 10 0 60453 10800.00000 0 -12580745.222 2569469.624 -22005347.996 10 0 60453 11700.00000 0 -11693570.472 -43116.489 -22641971.189 10 0 60453 12600.00000 0 -10978950.702 -2760331.175 -22837613.703 10 0 60453 13500.00000 0 -10457364.997 -5516886.866 -22588787.838 10 0 60453 14400.00000 0 -10137607.244 -8245055.085 -21900667.670 10 0 60453 15300.00000 0 -10016506.745 -10877251.165 -20786962.511 10 0 60453 16200.00000 0 -10079170.695 -13348612.261 -19269624.952 10 0 60453 17100.00000 0 -10299735.581 -15599462.200 -17378400.991 10 0 60453 18000.00000 0 -10642593.309 -17577562.054 -15150232.547 10 0 60453 18900.00000 0 -11064038.266 -19240054.855 -12628525.212 10 0 60453 19800.00000 0 -11514264.356 -20555026.010 -9862296.329 10 0 60453 20700.00000 0 -11939626.924 -21502617.203 -6905220.441 10 0 60453 21600.00000 0 -12285073.999 -22075650.222 -3814590.736 10 0 60453 22500.00000 0 -12496644.737 -22279737.406 -650216.330 10 0 60453 23400.00000 0 -12523930.645 -22132876.487 2526723.816 10 0 60453 24300.00000 0 -12322397.061 -21664548.607 5654849.099 10 0 60453 25200.00000 0 -11855468.448 -20914358.445 8673746.221 10 0 60453 26100.00000 0 -11096290.894 -19930273.839 11525117.653 10 0 60453 27000.00000 0 -10029098.582 -18766538.332 14153889.015 10 0 60453 27900.00000 0 -8650127.114 -17481343.157 16509255.647 10 0 60453 28800.00000 0 -6968035.012 -16134354.707 18545649.711 10 0 60453 29700.00000 0 -5003814.543 -14784199.289 20223610.636 10 0 60453 30600.00000 0 -2790193.654 -13486008.602 21510543.273 10 0 60453 31500.00000 0 -370551.375 -12289127.016 22381349.875 10 0 60453 32400.00000 0 2202611.268 -11235075.309 22818923.984 10 0 60453 33300.00000 0 4869584.574 -10355855.304 22814496.422 10 0 60453 34200.00000 0 7565671.552 -9672666.330 22367825.782 10 0 60453 35100.00000 0 10223628.129 -9195087.833 21487228.320 10 0 60453 36000.00000 0 12776223.387 -8920763.615 20189444.748 10 0 60453 36900.00000 0 15158815.111 -8835602.621 18499344.195 10 0 60453 37800.00000 0 17311834.466 -8914489.769 16449468.724 10 0 60453 38700.00000 0 19183076.315 -9122478.807 14079424.776 10 0 60453 39600.00000 0 20729698.787 -9416418.552 11435131.329 10 0 60453 40500.00000 0 21919847.118 -9746944.926 8567937.754 10 0 60453 41400.00000 0 22733831.921 -10060754.949 5533627.528 10 0 60453 42300.00000 0 23164810.526 -10303065.919 2391327.033 10 0 60453 43200.00000 0 23218941.044 -10420154.247 -797658.725 10 0 60453 44100.00000 0 22915001.470 -10361864.220 -3971059.547 10 0 60453 45000.00000 0 22283489.318 -10083977.632 -7066876.959 10 0 60453 45900.00000 0 21365240.068 -9550340.875 -10024618.243 10 0 60453 46800.00000 0 20209623.769 -8734656.383 -12786501.002 10 0 60453 47700.00000 0 18872397.683 -7621859.904 -15298602.305 10 0 60453 48600.00000 0 17413307.773 -6209023.233 -17511927.918 10 0 60453 49500.00000 0 15893542.591 -4505742.793 -19383379.125 10 0 60453 50400.00000 0 14373149.143 -2533996.983 -20876597.274 10 0 60453 51300.00000 0 12908521.380 -327478.264 -21962669.297 10 0 60453 52200.00000 0 11550068.125 2069571.407 -22620680.827 10 0 60453 53100.00000 0 10340158.816 4603972.048 -22838107.091 10 0 60453 54000.00000 0 9311432.726 7215595.465 -22611035.453 10 0 60453 54900.00000 0 8485541.187 9839649.331 -21944217.037 10 0 60453 55800.00000 0 7872373.404 12409159.439 -20850948.398 10 0 60453 56700.00000 0 7469795.577 14857546.458 -19352787.475 10 0 60453 57600.00000 0 7263911.245 17121190.210 -17479111.187 10 0 60453 58500.00000 0 7229828.885 19141875.591 -15266524.836 10 0 60453 59400.00000 0 7332901.697 20869019.879 -12758136.085 10 0 60453 60300.00000 0 7530385.128 22261590.717 -10002708.469 10 0 60453 61200.00000 0 7773440.695 23289637.247 -7053711.433 10 0 60453 62100.00000 0 8009400.740 23935373.168 -3968285.429 10 0 60453 63000.00000 0 8184198.449 24193769.101 -806141.892 10 0 60453 63900.00000 0 8244861.102 24072631.874 2371581.170 10 0 60453 64800.00000 0 8141962.339 23592169.322 5503486.744 10 0 60453 65700.00000 0 7831931.264 22784060.153 8529088.145 10 0 60453 66600.00000 0 7279122.361 21690068.410 11389958.921 10 0 60453 67500.00000 0 6457560.122 20360260.442 14030842.655 10 0 60453 68400.00000 0 5352285.641 18850898.151 16400702.929 10 0 60453 69300.00000 0 3960248.654 17222095.333 18453694.702 10 0 60453 70200.00000 0 2290706.823 15535333.271 20150039.865 10 0 60453 71100.00000 0 365114.032 13850937.451 21456791.223 10 0 60453 72000.00000 0 -1783499.938 12225618.891 22348470.949 10 0 60453 72900.00000 0 -4111635.393 10710181.029 22807571.490 10 0 60453 73800.00000 0 -6566871.617 9347486.729 22824908.984 10 0 60453 74700.00000 0 -9089797.654 8170769.650 22399821.519 10 0 60453 75600.00000 0 -11616247.968 7202360.564 21540206.972 10 0 60453 76500.00000 0 -14079752.924 6452882.510 20262397.803 10 0 60453 77400.00000 0 -16414104.317 5920949.694 18590872.981 10 0 60453 78300.00000 0 -18555930.520 5593384.264 16557810.206 10 0 60453 79200.00000 0 -20447174.362 5445943.534 14202484.708 10 0 60453 80100.00000 0 -22037369.813 5444528.573 11570524.218 10 0 60453 81000.00000 0 -23285621.027 5546824.347 8713032.926 10 0 60453 81900.00000 0 -24162199.026 5704302.685 5685600.441 10 0 60453 82800.00000 0 -24649686.911 5864503.113 2547214.822 10 0 60453 83700.00000 0 -24743623.367 5973493.919 -640898.623 10 0 60453 84600.00000 0 -24452615.634 5978407.318 -3816488.909 10 0 60453 85500.00000 0 -23797916.000 5829938.714 -6917515.758 99